Location: Constantia
(34.0183°S, 18.4411°E)
Time: 18:26:54
(UTC+00:00)

SL-16 R/B - Pass Details

Date: 17 February 2020
Orbit: 843 x 847 km, 71.0° (Epoch: 28 March)

Event Time Altitude Azimuth Distance (km) Brightness Sun altitude
Rises 00:46:12 0° 200° (SSW) 3,438 5.8 -37.3°
Reaches altitude 10° 00:48:40 10° 198° (SSW) 2,496 5.0 -37.1°
Enters shadow 00:50:45 23° 195° (SSW) 1,738 4.1 -36.8°
